owner,sensor,date,latitude,longitude,vertical_datum,wind_speed,wind_to_direction,wind_speed_of_gust,qcFlag 
DISL,ioos:station:DISL:CATA:1,2019-06-01T00:00:00Z,30.3085,-88.1395,0.0,6.8,214.0,99.0,'11111222,11111222,11144222' 
DISL,ioos:station:DISL:CATA:1,2019-06-01T00:30:00Z,30.3085,-88.1395,0.0,7.4,214.0,99.0,'11111222,11111222,11144222' 
DISL,ioos:station:DISL:CATA:1,2019-06-01T00:40:00Z,30.3085,-88.1395,0.0,7.44,222.6,-9999.0,'11111222,11111222,99999222' 
DISL,ioos:station:DISL:CATA:1,2019-06-01T01:00:00Z,30.3085,-88.1395,0.0,7.4,218.0,99.0,'11111222,11111222,11144222' 
DISL,ioos:station:DISL:CATA:1,2019-06-01T01:30:00Z,30.3085,-88.1395,0.0,7.3,223.0,99.0,'11111222,11111222,11144222' 
DISL,ioos:station:DISL:CATA:1,2019-06-01T01:40:00Z,30.3085,-88.1395,0.0,7.99,221.5,-9999.0,'11111222,11111222,99999222' 
DISL,ioos:station:DISL:CATA:1,2019-06-01T02:00:00Z,30.3085,-88.1395,0.0,7.5,229.0,99.0,'11111222,11111222,11144222' 
DISL,ioos:station:DISL:CATA:1,2019-06-01T02:30:00Z,30.3085,-88.1395,0.0,6.7,230.0,99.0,'11111222,11111222,11144222' 
DISL,ioos:station:DISL:CATA:1,2019-06-01T02:40:00Z,30.3085,-88.1395,0.0,6.4,227.5,-9999.0,'11111222,11111222,99999222' 
DISL,ioos:station:DISL:CATA:1,2019-06-01T03:00:00Z,30.3085,-88.1395,0.0,6.2,227.0,99.0,'11111222,11111222,11144222' 
DISL,ioos:station:DISL:CATA:1,2019-06-01T03:30:00Z,30.3085,-88.1395,0.0,6.3,227.0,99.0,'11111222,11111222,11144222' 
DISL,ioos:station:DISL:CATA:1,2019-06-01T03:40:00Z,30.3085,-88.1395,0.0,5.93,227.7,-9999.0,'11111222,11111222,99999222' 
DISL,ioos:station:DISL:CATA:1,2019-06-01T04:00:00Z,30.3085,-88.1395,0.0,6.0,229.0,99.0,'11111222,11111222,11144222' 
DISL,ioos:station:DISL:CATA:1,2019-06-01T04:30:00Z,30.3085,-88.1395,0.0,6.1,234.0,99.0,'11111222,11111222,11144222' 
DISL,ioos:station:DISL:CATA:1,2019-06-01T04:40:00Z,30.3085,-88.1395,0.0,6.22,230.6,-9999.0,'11111222,11111222,99999222' 
DISL,ioos:station:DISL:CATA:1,2019-06-01T05:00:00Z,30.3085,-88.1395,0.0,6.0,234.0,99.0,'11111222,11111222,11144222' 
DISL,ioos:station:DISL:CATA:1,2019-06-01T05:30:00Z,30.3085,-88.1395,0.0,6.5,238.0,99.0,'11111222,11111222,11144222' 
DISL,ioos:station:DISL:CATA:1,2019-06-01T05:40:00Z,30.3085,-88.1395,0.0,6.51,247.9,-9999.0,'11111222,11111222,99999222' 
DISL,ioos:station:DISL:CATA:1,2019-06-01T06:30:00Z,30.3085,-88.1395,0.0,6.1,240.0,99.0,'11111222,11111222,11144222' 
DISL,ioos:station:DISL:CATA:1,2019-06-01T06:40:00Z,30.3085,-88.1395,0.0,6.22,239.2,-9999.0,'11111222,11111222,99999222' 
DISL,ioos:station:DISL:CATA:1,2019-06-01T07:00:00Z,30.3085,-88.1395,0.0,6.6,240.0,99.0,'11111222,11111222,11144222' 
DISL,ioos:station:DISL:CATA:1,2019-06-01T07:30:00Z,30.3085,-88.1395,0.0,5.4,291.0,99.0,'11111222,11111222,11144222' 
DISL,ioos:station:DISL:CATA:1,2019-06-01T07:40:00Z,30.3085,-88.1395,0.0,7.92,289.8,-9999.0,'11111222,11111222,99999222' 
DISL,ioos:station:DISL:CATA:1,2019-06-01T08:00:00Z,30.3085,-88.1395,0.0,6.3,248.0,99.0,'11111222,11111222,11144222' 
DISL,ioos:station:DISL:CATA:1,2019-06-01T08:30:00Z,30.3085,-88.1395,0.0,2.9,245.0,99.0,'11111222,11111222,11144222' 
DISL,ioos:station:DISL:CATA:1,2019-06-01T08:40:00Z,30.3085,-88.1395,0.0,4.77,283.6,-9999.0,'11111222,11111222,99999222' 
DISL,ioos:station:DISL:CATA:1,2019-06-01T09:00:00Z,30.3085,-88.1395,0.0,3.1,321.0,99.0,'11111222,11111222,11144222' 
DISL,ioos:station:DISL:CATA:1,2019-06-01T09:30:00Z,30.3085,-88.1395,0.0,3.2,295.0,99.0,'11111222,11111222,11144222' 
DISL,ioos:station:DISL:CATA:1,2019-06-01T09:40:00Z,30.3085,-88.1395,0.0,1.94,340.2,-9999.0,'11111222,11111222,99999222' 
DISL,ioos:station:DISL:CATA:1,2019-06-01T10:00:00Z,30.3085,-88.1395,0.0,1.4,327.0,99.0,'11111222,11111222,11144222' 
DISL,ioos:station:DISL:CATA:1,2019-06-01T10:30:00Z,30.3085,-88.1395,0.0,1.8,272.0,99.0,'11111222,11111222,11144222' 
DISL,ioos:station:DISL:CATA:1,2019-06-01T10:40:00Z,30.3085,-88.1395,0.0,1.42,320.2,-9999.0,'11111222,11111222,99999222' 
DISL,ioos:station:DISL:CATA:1,2019-06-01T11:00:00Z,30.3085,-88.1395,0.0,0.8,34.0,99.0,'11111222,11111222,11144222' 
DISL,ioos:station:DISL:CATA:1,2019-06-01T11:30:00Z,30.3085,-88.1395,0.0,1.7,301.0,99.0,'11111222,11111222,11144222' 
DISL,ioos:station:DISL:CATA:1,2019-06-01T11:40:00Z,30.3085,-88.1395,0.0,2.74,292.2,-9999.0,'11111222,11111222,99999222' 
DISL,ioos:station:DISL:CATA:1,2019-06-01T12:00:00Z,30.3085,-88.1395,0.0,3.7,298.0,99.0,'11111222,11111222,11144222' 
DISL,ioos:station:DISL:CATA:1,2019-06-01T12:30:00Z,30.3085,-88.1395,0.0,2.7,301.0,99.0,'11111222,11111222,11144222' 
DISL,ioos:station:DISL:CATA:1,2019-06-01T12:40:00Z,30.3085,-88.1395,0.0,2.48,288.4,-9999.0,'11111222,11111222,99999222' 
DISL,ioos:station:DISL:CATA:1,2019-06-01T13:00:00Z,30.3085,-88.1395,0.0,4.0,286.0,99.0,'11111222,11111222,11144222' 
DISL,ioos:station:DISL:CATA:1,2019-06-01T13:30:00Z,30.3085,-88.1395,0.0,2.8,278.0,99.0,'11111222,11111222,11144222' 
DISL,ioos:station:DISL:CATA:1,2019-06-01T13:40:00Z,30.3085,-88.1395,0.0,3.12,273.7,-9999.0,'11111222,11111222,99999222' 
DISL,ioos:station:DISL:CATA:1,2019-06-01T14:00:00Z,30.3085,-88.1395,0.0,2.5,281.0,99.0,'11111222,11111222,11144222' 
DISL,ioos:station:DISL:CATA:1,2019-06-01T14:30:00Z,30.3085,-88.1395,0.0,1.8,267.0,99.0,'11111222,11111222,11144222' 
DISL,ioos:station:DISL:CATA:1,2019-06-01T14:40:00Z,30.3085,-88.1395,0.0,1.66,242.1,-9999.0,'11111222,11111222,99999222' 
DISL,ioos:station:DISL:CATA:1,2019-06-01T15:00:00Z,30.3085,-88.1395,0.0,2.5,235.0,99.0,'11111222,11111222,11144222' 
DISL,ioos:station:DISL:CATA:1,2019-06-01T15:30:00Z,30.3085,-88.1395,0.0,2.1,229.0,99.0,'11111222,11111222,11144222' 
DISL,ioos:station:DISL:CATA:1,2019-06-01T15:40:00Z,30.3085,-88.1395,0.0,1.69,215.5,-9999.0,'11111222,11111222,99999222' 
DISL,ioos:station:DISL:CATA:1,2019-06-01T16:00:00Z,30.3085,-88.1395,0.0,1.7,212.0,99.0,'11111222,11111222,11144222' 
DISL,ioos:station:DISL:CATA:1,2019-06-01T16:30:00Z,30.3085,-88.1395,0.0,0.8,262.0,99.0,'11111222,11111222,11144222' 
DISL,ioos:station:DISL:CATA:1,2019-06-01T16:40:00Z,30.3085,-88.1395,0.0,1.15,223.5,-9999.0,'11111222,11111222,99999222' 
DISL,ioos:station:DISL:CATA:1,2019-06-01T17:00:00Z,30.3085,-88.1395,0.0,1.6,193.0,99.0,'11111222,11111222,11144222' 
DISL,ioos:station:DISL:CATA:1,2019-06-01T17:30:00Z,30.3085,-88.1395,0.0,2.3,196.0,99.0,'11111222,11111222,11144222' 
DISL,ioos:station:DISL:CATA:1,2019-06-01T17:40:00Z,30.3085,-88.1395,0.0,3.01,193.7,-9999.0,'11111222,11111222,99999222' 
DISL,ioos:station:DISL:CATA:1,2019-06-01T18:00:00Z,30.3085,-88.1395,0.0,2.2,216.0,99.0,'11111222,11111222,11144222' 
DISL,ioos:station:DISL:CATA:1,2019-06-01T18:30:00Z,30.3085,-88.1395,0.0,2.9,214.0,99.0,'11111222,11111222,11144222' 
DISL,ioos:station:DISL:CATA:1,2019-06-01T18:40:00Z,30.3085,-88.1395,0.0,1.67,11.17,-9999.0,'11111222,11111222,99999222' 
DISL,ioos:station:DISL:CATA:1,2019-06-01T19:00:00Z,30.3085,-88.1395,0.0,5.4,24.0,99.0,'11111222,11111222,11144222' 
DISL,ioos:station:DISL:CATA:1,2019-06-01T19:30:00Z,30.3085,-88.1395,0.0,3.4,352.0,99.0,'11111222,11111222,11144222' 
DISL,ioos:station:DISL:CATA:1,2019-06-01T19:40:00Z,30.3085,-88.1395,0.0,1.98,312.3,-9999.0,'11111222,11111222,99999222' 
DISL,ioos:station:DISL:CATA:1,2019-06-01T20:00:00Z,30.3085,-88.1395,0.0,0.4,277.0,99.0,'11111222,11111222,11144222' 
DISL,ioos:station:DISL:CATA:1,2019-06-01T20:30:00Z,30.3085,-88.1395,0.0,3.7,230.0,99.0,'11111222,11111222,11144222' 
DISL,ioos:station:DISL:CATA:1,2019-06-01T20:40:00Z,30.3085,-88.1395,0.0,4.15,260.3,-9999.0,'11111222,11111222,99999222' 
DISL,ioos:station:DISL:CATA:1,2019-06-01T21:00:00Z,30.3085,-88.1395,0.0,6.1,337.0,99.0,'11111222,11111222,11144222' 
DISL,ioos:station:DISL:CATA:1,2019-06-01T21:30:00Z,30.3085,-88.1395,0.0,4.0,355.0,99.0,'11111222,11111222,11144222' 
DISL,ioos:station:DISL:CATA:1,2019-06-01T21:40:00Z,30.3085,-88.1395,0.0,2.84,2.007,-9999.0,'11111222,11111222,99999222' 
DISL,ioos:station:DISL:CATA:1,2019-06-01T22:00:00Z,30.3085,-88.1395,0.0,1.5,24.0,99.0,'11111222,11111222,11144222' 
DISL,ioos:station:DISL:CATA:1,2019-06-01T22:30:00Z,30.3085,-88.1395,0.0,0.7,5.0,99.0,'11111222,11111222,11144222' 
DISL,ioos:station:DISL:CATA:1,2019-06-01T22:40:00Z,30.3085,-88.1395,0.0,0.8,24.65,-9999.0,'11111222,11111222,99999222' 
DISL,ioos:station:DISL:CATA:1,2019-06-01T23:00:00Z,30.3085,-88.1395,0.0,1.8,264.0,99.0,'11111222,11111222,11144222' 
DISL,ioos:station:DISL:CATA:1,2019-06-01T23:30:00Z,30.3085,-88.1395,0.0,0.3,239.0,99.0,'11111222,11111222,11144222' 
DISL,ioos:station:DISL:CATA:1,2019-06-01T23:40:00Z,30.3085,-88.1395,0.0,0.58,69.12,-9999.0,'11111222,11111222,99999222' 
DISL,ioos:station:DISL:CATA:1,2019-06-02T00:00:00Z,30.3085,-88.1395,0.0,1.8,49.0,99.0,'11111222,11111222,11144222' 
DISL,ioos:station:DISL:CATA:1,2019-06-02T00:30:00Z,30.3085,-88.1395,0.0,1.6,55.0,99.0,'11111222,11111222,11144222' 
DISL,ioos:station:DISL:CATA:1,2019-06-02T00:40:00Z,30.3085,-88.1395,0.0,1.57,75.24,-9999.0,'11111222,11111222,99999222' 
DISL,ioos:station:DISL:CATA:1,2019-06-02T01:00:00Z,30.3085,-88.1395,0.0,0.7,152.0,99.0,'11111222,11111222,11144222' 
DISL,ioos:station:DISL:CATA:1,2019-06-02T01:30:00Z,30.3085,-88.1395,0.0,0.7,83.0,99.0,'11111222,11111222,11144222' 
DISL,ioos:station:DISL:CATA:1,2019-06-02T01:40:00Z,30.3085,-88.1395,0.0,2.25,209.0,-9999.0,'11111222,11111222,99999222' 
DISL,ioos:station:DISL:CATA:1,2019-06-02T02:00:00Z,30.3085,-88.1395,0.0,3.3,216.0,99.0,'11111222,11111222,11144222' 
DISL,ioos:station:DISL:CATA:1,2019-06-02T02:30:00Z,30.3085,-88.1395,0.0,2.2,208.0,99.0,'11111222,11111222,11144222' 
DISL,ioos:station:DISL:CATA:1,2019-06-02T02:40:00Z,30.3085,-88.1395,0.0,3.27,198.2,-9999.0,'11111222,11111222,99999222' 
DISL,ioos:station:DISL:CATA:1,2019-06-02T03:00:00Z,30.3085,-88.1395,0.0,5.0,214.0,99.0,'11111222,11111222,11144222' 
DISL,ioos:station:DISL:CATA:1,2019-06-02T03:30:00Z,30.3085,-88.1395,0.0,4.7,200.0,99.0,'11111222,11111222,11144222' 
DISL,ioos:station:DISL:CATA:1,2019-06-02T03:40:00Z,30.3085,-88.1395,0.0,5.51,201.5,-9999.0,'11111222,11111222,99999222' 
DISL,ioos:station:DISL:CATA:1,2019-06-02T04:00:00Z,30.3085,-88.1395,0.0,5.0,218.0,99.0,'11111222,11111222,11144222' 
DISL,ioos:station:DISL:CATA:1,2019-06-02T04:30:00Z,30.3085,-88.1395,0.0,4.3,228.0,99.0,'11111222,11111222,11144222' 
DISL,ioos:station:DISL:CATA:1,2019-06-02T04:40:00Z,30.3085,-88.1395,0.0,4.22,227.1,-9999.0,'11111222,11111222,99999222' 
DISL,ioos:station:DISL:CATA:1,2019-06-02T05:00:00Z,30.3085,-88.1395,0.0,3.5,238.0,99.0,'11111222,11111222,11144222' 
DISL,ioos:station:DISL:CATA:1,2019-06-02T05:30:00Z,30.3085,-88.1395,0.0,3.1,253.0,99.0,'11111222,11111222,11144222' 
DISL,ioos:station:DISL:CATA:1,2019-06-02T05:40:00Z,30.3085,-88.1395,0.0,3.91,236.8,-9999.0,'11111222,11111222,99999222' 
DISL,ioos:station:DISL:CATA:1,2019-06-02T06:30:00Z,30.3085,-88.1395,0.0,4.0,236.0,99.0,'11111222,11111222,11144222' 
DISL,ioos:station:DISL:CATA:1,2019-06-02T06:40:00Z,30.3085,-88.1395,0.0,4.03,236.2,-9999.0,'11111222,11111222,99999222' 
DISL,ioos:station:DISL:CATA:1,2019-06-02T07:00:00Z,30.3085,-88.1395,0.0,3.8,242.0,99.0,'11111222,11111222,11144222' 
DISL,ioos:station:DISL:CATA:1,2019-06-02T07:30:00Z,30.3085,-88.1395,0.0,3.6,255.0,99.0,'11111222,11111222,11144222' 
DISL,ioos:station:DISL:CATA:1,2019-06-02T07:40:00Z,30.3085,-88.1395,0.0,3.85,257.8,-9999.0,'11111222,11111222,99999222' 
DISL,ioos:station:DISL:CATA:1,2019-06-02T08:00:00Z,30.3085,-88.1395,0.0,2.8,302.0,99.0,'11111222,11111222,11144222' 
DISL,ioos:station:DISL:CATA:1,2019-06-02T08:30:00Z,30.3085,-88.1395,0.0,1.0,309.0,99.0,'11111222,11111222,11144222' 
DISL,ioos:station:DISL:CATA:1,2019-06-02T08:40:00Z,30.3085,-88.1395,0.0,1.44,297.1,-9999.0,'11111222,11111222,99999222' 
DISL,ioos:station:DISL:CATA:1,2019-06-02T09:00:00Z,30.3085,-88.1395,0.0,1.6,341.0,99.0,'11111222,11111222,11144222' 
DISL,ioos:station:DISL:CATA:1,2019-06-02T09:30:00Z,30.3085,-88.1395,0.0,1.7,323.0,99.0,'11111222,11111222,11144222' 
DISL,ioos:station:DISL:CATA:1,2019-06-02T09:40:00Z,30.3085,-88.1395,0.0,1.5,299.1,-9999.0,'11111222,11111222,99999222' 
DISL,ioos:station:DISL:CATA:1,2019-06-02T10:00:00Z,30.3085,-88.1395,0.0,1.7,330.0,99.0,'11111222,11111222,11144222' 
DISL,ioos:station:DISL:CATA:1,2019-06-02T10:30:00Z,30.3085,-88.1395,0.0,2.3,310.0,99.0,'11111222,11111222,11144222' 
DISL,ioos:station:DISL:CATA:1,2019-06-02T10:40:00Z,30.3085,-88.1395,0.0,2.54,308.5,-9999.0,'11111222,11111222,99999222' 
DISL,ioos:station:DISL:CATA:1,2019-06-02T11:00:00Z,30.3085,-88.1395,0.0,2.9,326.0,99.0,'11111222,11111222,11144222' 
DISL,ioos:station:DISL:CATA:1,2019-06-02T11:30:00Z,30.3085,-88.1395,0.0,2.7,342.0,99.0,'11111222,11111222,11144222' 
DISL,ioos:station:DISL:CATA:1,2019-06-02T11:40:00Z,30.3085,-88.1395,0.0,2.77,340.1,-9999.0,'11111222,11111222,99999222' 
DISL,ioos:station:DISL:CATA:1,2019-06-02T12:00:00Z,30.3085,-88.1395,0.0,2.8,342.0,99.0,'11111222,11111222,11144222' 
DISL,ioos:station:DISL:CATA:1,2019-06-02T12:30:00Z,30.3085,-88.1395,0.0,1.3,359.0,99.0,'11111222,11111222,11144222' 
DISL,ioos:station:DISL:CATA:1,2019-06-02T12:40:00Z,30.3085,-88.1395,0.0,1.98,3.923,-9999.0,'11111222,11111222,99999222' 
DISL,ioos:station:DISL:CATA:1,2019-06-02T13:00:00Z,30.3085,-88.1395,0.0,2.0,25.0,99.0,'11111222,11111222,11144222' 
DISL,ioos:station:DISL:CATA:1,2019-06-02T13:30:00Z,30.3085,-88.1395,0.0,2.8,47.0,99.0,'11111222,11111222,11144222' 
DISL,ioos:station:DISL:CATA:1,2019-06-02T13:40:00Z,30.3085,-88.1395,0.0,2.96,37.01,-9999.0,'11111222,11111222,99999222' 
DISL,ioos:station:DISL:CATA:1,2019-06-02T14:00:00Z,30.3085,-88.1395,0.0,3.0,43.0,99.0,'11111222,11111222,11144222' 
DISL,ioos:station:DISL:CATA:1,2019-06-02T14:30:00Z,30.3085,-88.1395,0.0,3.0,38.0,99.0,'11111222,11111222,11144222' 
DISL,ioos:station:DISL:CATA:1,2019-06-02T14:40:00Z,30.3085,-88.1395,0.0,2.85,32.2,-9999.0,'11111222,11111222,99999222' 
DISL,ioos:station:DISL:CATA:1,2019-06-02T15:00:00Z,30.3085,-88.1395,0.0,3.1,46.0,99.0,'11111222,11111222,11144222' 
DISL,ioos:station:DISL:CATA:1,2019-06-02T15:30:00Z,30.3085,-88.1395,0.0,3.0,57.0,99.0,'11111222,11111222,11144222' 
DISL,ioos:station:DISL:CATA:1,2019-06-02T15:40:00Z,30.3085,-88.1395,0.0,2.96,60.68,-9999.0,'11111222,11111222,99999222' 
DISL,ioos:station:DISL:CATA:1,2019-06-02T16:00:00Z,30.3085,-88.1395,0.0,2.6,62.0,99.0,'11111222,11111222,11144222' 
DISL,ioos:station:DISL:CATA:1,2019-06-02T16:30:00Z,30.3085,-88.1395,0.0,2.3,82.0,99.0,'11111222,11111222,11144222' 
DISL,ioos:station:DISL:CATA:1,2019-06-02T16:40:00Z,30.3085,-88.1395,0.0,2.39,86.3,-9999.0,'11111222,11111222,99999222' 
DISL,ioos:station:DISL:CATA:1,2019-06-02T17:00:00Z,30.3085,-88.1395,0.0,2.2,120.0,99.0,'11111222,11111222,11144222' 
DISL,ioos:station:DISL:CATA:1,2019-06-02T17:30:00Z,30.3085,-88.1395,0.0,2.3,128.0,99.0,'11111222,11111222,11144222' 
DISL,ioos:station:DISL:CATA:1,2019-06-02T17:40:00Z,30.3085,-88.1395,0.0,2.33,125.9,-9999.0,'11111222,11111222,99999222' 
DISL,ioos:station:DISL:CATA:1,2019-06-02T18:00:00Z,30.3085,-88.1395,0.0,2.9,134.0,99.0,'11111222,11111222,11144222' 
DISL,ioos:station:DISL:CATA:1,2019-06-02T18:30:00Z,30.3085,-88.1395,0.0,4.0,175.0,99.0,'11111222,11111222,11144222' 
DISL,ioos:station:DISL:CATA:1,2019-06-02T18:40:00Z,30.3085,-88.1395,0.0,4.25,169.0,-9999.0,'11111222,11111222,99999222' 
DISL,ioos:station:DISL:CATA:1,2019-06-02T19:00:00Z,30.3085,-88.1395,0.0,4.8,169.0,99.0,'11111222,11111222,11144222' 
DISL,ioos:station:DISL:CATA:1,2019-06-02T19:30:00Z,30.3085,-88.1395,0.0,4.9,180.0,99.0,'11111222,11111222,11144222' 
DISL,ioos:station:DISL:CATA:1,2019-06-02T19:40:00Z,30.3085,-88.1395,0.0,5.01,175.6,-9999.0,'11111222,11111222,99999222' 
DISL,ioos:station:DISL:CATA:1,2019-06-02T20:00:00Z,30.3085,-88.1395,0.0,4.7,184.0,99.0,'11111222,11111222,11144222' 
DISL,ioos:station:DISL:CATA:1,2019-06-02T20:30:00Z,30.3085,-88.1395,0.0,5.3,188.0,99.0,'11111222,11111222,11144222' 
DISL,ioos:station:DISL:CATA:1,2019-06-02T20:40:00Z,30.3085,-88.1395,0.0,5.18,194.4,-9999.0,'11111222,11111222,99999222' 
DISL,ioos:station:DISL:CATA:1,2019-06-02T21:00:00Z,30.3085,-88.1395,0.0,4.7,188.0,99.0,'11111222,11111222,11144222' 
DISL,ioos:station:DISL:CATA:1,2019-06-02T21:30:00Z,30.3085,-88.1395,0.0,4.2,182.0,99.0,'11111222,11111222,11144222' 
DISL,ioos:station:DISL:CATA:1,2019-06-02T21:40:00Z,30.3085,-88.1395,0.0,4.41,179.9,-9999.0,'11111222,11111222,99999222' 
DISL,ioos:station:DISL:CATA:1,2019-06-02T22:00:00Z,30.3085,-88.1395,0.0,4.8,182.0,99.0,'11111222,11111222,11144222' 
DISL,ioos:station:DISL:CATA:1,2019-06-02T22:30:00Z,30.3085,-88.1395,0.0,4.0,196.0,99.0,'11111222,11111222,11144222' 
DISL,ioos:station:DISL:CATA:1,2019-06-02T22:40:00Z,30.3085,-88.1395,0.0,3.65,200.0,-9999.0,'11111222,11111222,99999222' 
DISL,ioos:station:DISL:CATA:1,2019-06-02T23:00:00Z,30.3085,-88.1395,0.0,4.2,198.0,99.0,'11111222,11111222,11144222' 
DISL,ioos:station:DISL:CATA:1,2019-06-02T23:30:00Z,30.3085,-88.1395,0.0,3.4,202.0,99.0,'11111222,11111222,11144222' 
DISL,ioos:station:DISL:CATA:1,2019-06-02T23:40:00Z,30.3085,-88.1395,0.0,3.33,198.3,-9999.0,'11111222,11111222,99999222' 
DISL,ioos:station:DISL:CATA:1,2019-06-03T00:00:00Z,30.3085,-88.1395,0.0,3.8,213.0,99.0,'11111222,11111222,11144222' 
DISL,ioos:station:DISL:CATA:1,2019-06-03T00:30:00Z,30.3085,-88.1395,0.0,4.5,206.0,99.0,'11111222,11111222,11144222' 
DISL,ioos:station:DISL:CATA:1,2019-06-03T00:40:00Z,30.3085,-88.1395,0.0,4.42,205.8,-9999.0,'11111222,11111222,99999222' 
DISL,ioos:station:DISL:CATA:1,2019-06-03T01:00:00Z,30.3085,-88.1395,0.0,3.9,204.0,99.0,'11111222,11111222,11144222' 
DISL,ioos:station:DISL:CATA:1,2019-06-03T01:30:00Z,30.3085,-88.1395,0.0,4.2,209.0,99.0,'11111222,11111222,11144222' 
DISL,ioos:station:DISL:CATA:1,2019-06-03T01:40:00Z,30.3085,-88.1395,0.0,3.93,219.4,-9999.0,'11111222,11111222,99999222' 
DISL,ioos:station:DISL:CATA:1,2019-06-03T02:00:00Z,30.3085,-88.1395,0.0,4.8,226.0,99.0,'11111222,11111222,11144222' 
DISL,ioos:station:DISL:CATA:1,2019-06-03T02:30:00Z,30.3085,-88.1395,0.0,4.3,221.0,99.0,'11111222,11111222,11144222' 
DISL,ioos:station:DISL:CATA:1,2019-06-03T02:40:00Z,30.3085,-88.1395,0.0,4.16,215.3,-9999.0,'11111222,11111222,99999222' 
DISL,ioos:station:DISL:CATA:1,2019-06-03T03:00:00Z,30.3085,-88.1395,0.0,4.8,228.0,99.0,'11111222,11111222,11144222' 
DISL,ioos:station:DISL:CATA:1,2019-06-03T03:30:00Z,30.3085,-88.1395,0.0,4.7,217.0,99.0,'11111222,11111222,11144222' 
DISL,ioos:station:DISL:CATA:1,2019-06-03T03:40:00Z,30.3085,-88.1395,0.0,4.59,223.0,-9999.0,'11111222,11111222,99999222' 
DISL,ioos:station:DISL:CATA:1,2019-06-03T04:00:00Z,30.3085,-88.1395,0.0,3.9,223.0,99.0,'11111222,11111222,11144222' 
DISL,ioos:station:DISL:CATA:1,2019-06-03T04:30:00Z,30.3085,-88.1395,0.0,4.4,226.0,99.0,'11111222,11111222,11144222' 
DISL,ioos:station:DISL:CATA:1,2019-06-03T04:40:00Z,30.3085,-88.1395,0.0,4.25,222.3,-9999.0,'11111222,11111222,99999222' 
DISL,ioos:station:DISL:CATA:1,2019-06-03T05:00:00Z,30.3085,-88.1395,0.0,4.0,236.0,99.0,'11111222,11111222,11144222' 
DISL,ioos:station:DISL:CATA:1,2019-06-03T05:30:00Z,30.3085,-88.1395,0.0,3.8,234.0,99.0,'11111222,11111222,11144222' 
DISL,ioos:station:DISL:CATA:1,2019-06-03T05:40:00Z,30.3085,-88.1395,0.0,3.74,233.2,-9999.0,'11111222,11111222,99999222' 
DISL,ioos:station:DISL:CATA:1,2019-06-03T06:30:00Z,30.3085,-88.1395,0.0,4.0,246.0,99.0,'11111222,11111222,11144222' 
DISL,ioos:station:DISL:CATA:1,2019-06-03T06:40:00Z,30.3085,-88.1395,0.0,4.31,257.5,-9999.0,'11111222,11111222,99999222' 
DISL,ioos:station:DISL:CATA:1,2019-06-03T07:00:00Z,30.3085,-88.1395,0.0,4.7,260.0,99.0,'11111222,11111222,11144222' 
DISL,ioos:station:DISL:CATA:1,2019-06-03T07:30:00Z,30.3085,-88.1395,0.0,5.1,263.0,99.0,'11111222,11111222,11144222' 
DISL,ioos:station:DISL:CATA:1,2019-06-03T07:40:00Z,30.3085,-88.1395,0.0,5.2,256.9,-9999.0,'11111222,11111222,99999222' 
DISL,ioos:station:DISL:CATA:1,2019-06-03T08:00:00Z,30.3085,-88.1395,0.0,5.5,255.0,99.0,'11111222,11111222,11144222' 
DISL,ioos:station:DISL:CATA:1,2019-06-03T08:30:00Z,30.3085,-88.1395,0.0,3.9,305.0,99.0,'11111222,11111222,11144222' 
DISL,ioos:station:DISL:CATA:1,2019-06-03T08:40:00Z,30.3085,-88.1395,0.0,3.62,299.2,-9999.0,'11111222,11111222,99999222' 
DISL,ioos:station:DISL:CATA:1,2019-06-03T09:00:00Z,30.3085,-88.1395,0.0,3.9,299.0,99.0,'11111222,11111222,11144222' 
DISL,ioos:station:DISL:CATA:1,2019-06-03T09:30:00Z,30.3085,-88.1395,0.0,4.1,307.0,99.0,'11111222,11111222,11144222' 
DISL,ioos:station:DISL:CATA:1,2019-06-03T09:40:00Z,30.3085,-88.1395,0.0,3.85,310.4,-9999.0,'11111222,11111222,99999222' 
DISL,ioos:station:DISL:CATA:1,2019-06-03T10:00:00Z,30.3085,-88.1395,0.0,3.9,306.0,99.0,'11111222,11111222,11144222' 
DISL,ioos:station:DISL:CATA:1,2019-06-03T10:30:00Z,30.3085,-88.1395,0.0,3.9,309.0,99.0,'11111222,11111222,11144222' 
DISL,ioos:station:DISL:CATA:1,2019-06-03T10:40:00Z,30.3085,-88.1395,0.0,3.94,308.7,-9999.0,'11111222,11111222,99999222' 
DISL,ioos:station:DISL:CATA:1,2019-06-03T11:00:00Z,30.3085,-88.1395,0.0,3.4,324.0,99.0,'11111222,11111222,11144222' 
DISL,ioos:station:DISL:CATA:1,2019-06-03T11:30:00Z,30.3085,-88.1395,0.0,3.4,2.0,99.0,'11111222,11111222,11144222' 
DISL,ioos:station:DISL:CATA:1,2019-06-03T11:40:00Z,30.3085,-88.1395,0.0,3.57,3.325,-9999.0,'11111222,11111222,99999222' 
DISL,ioos:station:DISL:CATA:1,2019-06-03T12:00:00Z,30.3085,-88.1395,0.0,3.0,0.0,99.0,'11111222,11111222,11144222' 
DISL,ioos:station:DISL:CATA:1,2019-06-03T12:30:00Z,30.3085,-88.1395,0.0,3.4,10.0,99.0,'11111222,11111222,11144222' 
DISL,ioos:station:DISL:CATA:1,2019-06-03T12:40:00Z,30.3085,-88.1395,0.0,3.61,10.84,-9999.0,'11111222,11111222,99999222' 
DISL,ioos:station:DISL:CATA:1,2019-06-03T13:00:00Z,30.3085,-88.1395,0.0,3.2,15.0,99.0,'11111222,11111222,11144222' 
DISL,ioos:station:DISL:CATA:1,2019-06-03T13:30:00Z,30.3085,-88.1395,0.0,3.8,37.0,99.0,'11111222,11111222,11144222' 
DISL,ioos:station:DISL:CATA:1,2019-06-03T13:40:00Z,30.3085,-88.1395,0.0,3.87,35.75,-9999.0,'11111222,11111222,99999222' 
DISL,ioos:station:DISL:CATA:1,2019-06-03T14:00:00Z,30.3085,-88.1395,0.0,3.9,31.0,99.0,'11111222,11111222,11144222' 
DISL,ioos:station:DISL:CATA:1,2019-06-03T14:30:00Z,30.3085,-88.1395,0.0,3.9,27.0,99.0,'11111222,11111222,11144222' 
DISL,ioos:station:DISL:CATA:1,2019-06-03T14:40:00Z,30.3085,-88.1395,0.0,3.97,30.71,-9999.0,'11111222,11111222,99999222' 
DISL,ioos:station:DISL:CATA:1,2019-06-03T15:00:00Z,30.3085,-88.1395,0.0,4.0,31.0,99.0,'11111222,11111222,11144222' 
DISL,ioos:station:DISL:CATA:1,2019-06-03T15:30:00Z,30.3085,-88.1395,0.0,3.7,37.0,99.0,'11111222,11111222,11144222' 
DISL,ioos:station:DISL:CATA:1,2019-06-03T15:40:00Z,30.3085,-88.1395,0.0,3.32,36.32,-9999.0,'11111222,11111222,99999222' 
DISL,ioos:station:DISL:CATA:1,2019-06-03T16:00:00Z,30.3085,-88.1395,0.0,3.3,36.0,99.0,'11111222,11111222,11144222' 
DISL,ioos:station:DISL:CATA:1,2019-06-03T16:30:00Z,30.3085,-88.1395,0.0,2.4,42.0,99.0,'11111222,11111222,11144222' 
DISL,ioos:station:DISL:CATA:1,2019-06-03T16:40:00Z,30.3085,-88.1395,0.0,2.06,45.46,-9999.0,'11111222,11111222,99999222' 
DISL,ioos:station:DISL:CATA:1,2019-06-03T17:00:00Z,30.3085,-88.1395,0.0,1.9,54.0,99.0,'11111222,11111222,11144222' 
DISL,ioos:station:DISL:CATA:1,2019-06-03T17:30:00Z,30.3085,-88.1395,0.0,1.6,63.0,99.0,'11111222,11111222,11144222' 
DISL,ioos:station:DISL:CATA:1,2019-06-03T17:40:00Z,30.3085,-88.1395,0.0,1.55,71.14,-9999.0,'11111222,11111222,99999222' 
DISL,ioos:station:DISL:CATA:1,2019-06-03T18:00:00Z,30.3085,-88.1395,0.0,1.5,96.0,99.0,'11111222,11111222,11144222' 
DISL,ioos:station:DISL:CATA:1,2019-06-03T18:30:00Z,30.3085,-88.1395,0.0,1.1,108.0,99.0,'11111222,11111222,11144222' 
DISL,ioos:station:DISL:CATA:1,2019-06-03T18:40:00Z,30.3085,-88.1395,0.0,1.58,119.0,-9999.0,'11111222,11111222,99999222' 
DISL,ioos:station:DISL:CATA:1,2019-06-03T19:00:00Z,30.3085,-88.1395,0.0,1.7,127.0,99.0,'11111222,11111222,11144222' 
DISL,ioos:station:DISL:CATA:1,2019-06-03T19:30:00Z,30.3085,-88.1395,0.0,4.2,170.0,99.0,'11111222,11111222,11144222' 
DISL,ioos:station:DISL:CATA:1,2019-06-03T19:40:00Z,30.3085,-88.1395,0.0,4.71,169.7,-9999.0,'11111222,11111222,99999222' 
DISL,ioos:station:DISL:CATA:1,2019-06-03T20:00:00Z,30.3085,-88.1395,0.0,4.7,167.0,99.0,'11111222,11111222,11144222' 